| time (UTC) | temp F | wind direction | speed MPH | gust MPH | rain 1hr in | rain 24hr in | rain mn in | humidity % | barometer mb |
| 20260903134805 | 63 | 159 | 0.0 | 0.0 | 0.00 | 0.04 | 0.04 | 86 | 1010.9 |
| 20260903134304 | 63 | 159 | 0.0 | 0.0 | 0.00 | 0.04 | 0.04 | 87 | 1010.9 |
| 20260903133804 | 62 | 159 | 0.0 | 0.0 | 0.00 | 0.04 | 0.04 | 86 | 1010.9 |
| 20260903132804 | 62 | 159 | 0.0 | 0.0 | 0.00 | 0.04 | 0.04 | 87 | 1010.9 |
| 20260903132306 | 62 | 159 | 0.0 | 0.0 | 0.00 | 0.04 | 0.04 | 87 | 1010.9 |
| 20260903130305 | 62 | 159 | 0.0 | 0.0 | 0.00 | 0.04 | 0.04 | 87 | 1011.5 |
| 20260903125804 | 62 | 159 | 0.0 | 0.0 | 0.00 | 0.04 | 0.04 | 87 | 1011.5 |
| 20260903125305 | 62 | 159 | 0.0 | 0.0 | 0.00 | 0.04 | 0.04 | 87 | 1011.5 |
| 20260903123804 | 62 | 159 | 0.0 | 0.0 | 0.00 | 0.04 | 0.04 | 87 | 1011.5 |
| 20260903122306 | 62 | 159 | 0.0 | 0.0 | 0.00 | 0.04 | 0.04 | 87 | 1011.5 |
| 20260903115804 | 61 | 159 | 0.0 | 0.0 | 0.00 | 0.04 | 0.04 | 86 | 1011.5 |
| 20260903114804 | 61 | 159 | 0.0 | 0.0 | 0.00 | 0.04 | 0.04 | 86 | 1011.5 |
| 20260903114304 | 61 | 159 | 0.0 | 0.0 | 0.00 | 0.04 | 0.04 | 86 | 1011.5 |
| 20260903113805 | 61 | 159 | 0.0 | 0.0 | 0.00 | 0.04 | 0.04 | 86 | 1011.5 |
| 20260903113305 | 61 | 159 | 0.0 | 0.0 | 0.00 | 0.04 | 0.04 | 86 | 1011.5 |
| 20260903111805 | 61 | 159 | 0.0 | 0.0 | 0.00 | 0.04 | 0.04 | 86 | 1011.5 |
| 20260903110804 | 60 | 159 | 0.0 | 0.0 | 0.00 | 0.04 | 0.04 | 85 | 1011.5 |
| 20260903110304 | 60 | 159 | 0.0 | 0.0 | 0.00 | 0.04 | 0.04 | 85 | 1011.5 |
| 20260903104806 | 60 | 159 | 0.0 | 0.0 | 0.00 | 0.04 | 0.04 | 85 | 1011.4 |
| 20260903104305 | 60 | 159 | 0.0 | 0.0 | 0.00 | 0.04 | 0.04 | 85 | 1011.4 |
| 20260903103804 | 60 | 159 | 0.0 | 0.0 | 0.00 | 0.04 | 0.04 | 85 | 1011.4 |
| 20260903101804 | 60 | 159 | 0.0 | 0.0 | 0.00 | 0.04 | 0.04 | 85 | 1011.3 |
| 20260903100805 | 61 | 159 | 0.0 | 0.0 | 0.00 | 0.04 | 0.04 | 85 | 1011.5 |
| 20260903100305 | 61 | 159 | 0.0 | 0.0 | 0.00 | 0.04 | 0.04 | 85 | 1011.5 |
| 20260903095805 | 61 | 159 | 0.0 | 0.0 | 0.00 | 0.04 | 0.04 | 85 | 1011.5 |
| 20260903094804 | 61 | 159 | 0.0 | 0.0 | 0.00 | 0.04 | 0.04 | 85 | 1011.5 |
| 20260903093305 | 61 | 159 | 0.0 | 0.0 | 0.00 | 0.04 | 0.04 | 85 | 1011.5 |
| 20260903091805 | 60 | 159 | 0.0 | 0.0 | 0.00 | 0.04 | 0.04 | 85 | 1011.6 |
| 20260903090304 | 61 | 159 | 0.0 | 0.0 | 0.00 | 0.04 | 0.04 | 85 | 1011.6 |
| 20260903083804 | 60 | 159 | 0.0 | 0.0 | 0.00 | 0.04 | 0.04 | 85 | 1011.9 |
| 20260903082804 | 60 | 159 | 0.0 | 0.0 | 0.00 | 0.04 | 0.04 | 84 | 1012.2 |
| 20260903080804 | 60 | 159 | 0.0 | 0.0 | 0.00 | 0.04 | 0.04 | 84 | 1012.2 |
| 20260903080304 | 60 | 159 | 0.0 | 0.0 | 0.00 | 0.04 | 0.04 | 84 | 1012.2 |
| 20260903075306 | 60 | 159 | 0.0 | 0.0 | 0.00 | 0.04 | 0.04 | 84 | 1012.2 |
| 20260903074805 | 60 | 159 | 0.0 | 0.0 | 0.00 | 0.04 | 0.04 | 84 | 1012.2 |
| 20260903073804 | 60 | 159 | 0.0 | 0.0 | 0.00 | 0.04 | 0.04 | 84 | 1012.2 |
| 20260903073304 | 61 | 159 | 0.0 | 0.0 | 0.00 | 0.04 | 0.04 | 84 | 1012.2 |
| 20260903072306 | 60 | 159 | 0.0 | 0.0 | 0.00 | 0.04 | 0.04 | 83 | 1012.6 |
| 20260903071805 | 60 | 159 | 0.0 | 0.0 | 0.00 | 0.04 | 0.04 | 83 | 1012.6 |
| 20260903070804 | 60 | 159 | 0.0 | 0.0 | 0.01 | 0.04 | 0.04 | 82 | 1012.6 |
| 20260903065306 | 61 | 159 | 0.0 | 0.0 | 0.02 | 0.04 | 0.04 | 81 | 1012.6 |
| 20260903064805 | 61 | 159 | 0.0 | 0.0 | 0.02 | 0.04 | 0.04 | 81 | 1012.6 |
| 20260903062306 | 62 | 159 | 0.0 | 0.0 | 0.03 | 0.04 | 0.04 | 79 | 1012.6 |
| 20260903060805 | 62 | 159 | 0.0 | 0.0 | 0.03 | 0.03 | 0.03 | 77 | 1013.3 |
| 20260903060304 | 62 | 159 | 0.0 | 0.0 | 0.03 | 0.03 | 0.03 | 76 | 1013.3 |
| 20260903055805 | 63 | 159 | 0.0 | 0.0 | 0.03 | 0.03 | 0.03 | 75 | 1013.3 |
| 20260903055306 | 63 | 159 | 0.0 | 0.0 | 0.02 | 0.02 | 0.02 | 74 | 1013.3 |
| 20260903054804 | 64 | 159 | 0.0 | 0.0 | 0.02 | 0.02 | 0.02 | 72 | 1013.3 |
| 20260903053305 | 64 | 159 | 0.0 | 0.0 | 0.01 | 0.01 | 0.01 | 69 | 1013.3 |
| 20260903052307 | 64 | 159 | 0.0 | 0.0 | 0.01 | 0.01 | 0.01 | 69 | 1013.3 |
| 20260903051804 | 65 | 159 | 0.0 | 0.0 | 0.01 | 0.01 | 0.01 | 69 | 1013.3 |
| 20260903050804 | 65 | 159 | 0.0 | 0.0 | 0.00 | 0.00 | 0.00 | 67 | 1013.4 |
| 20260903045306 | 66 | 159 | 0.0 | 0.0 | 0.00 | 0.00 | 0.00 | 65 | 1013.5 |
| 20260903044805 | 66 | 159 | 0.0 | 0.0 | 0.00 | 0.00 | 0.00 | 65 | 1013.5 |
| 20260903044305 | 66 | 159 | 0.0 | 1.0 | 0.00 | 0.00 | 0.00 | 65 | 1013.6 |
| 20260903043304 | 66 | 159 | 0.0 | 0.0 | 0.00 | 0.00 | 0.00 | 65 | 1013.6 |
| 20260903035306 | 65 | 159 | 0.0 | 0.0 | 0.00 | 0.00 | 0.00 | 67 | 1014.5 |
| 20260903033305 | 65 | 159 | 0.0 | 0.0 | 0.00 | 0.00 | 0.00 | 67 | 1014.5 |
| 20260903032805 | 65 | 159 | 0.0 | 0.0 | 0.00 | 0.00 | 0.00 | 68 | 1014.5 |
| 20260903032306 | 65 | 159 | 0.0 | 0.0 | 0.00 | 0.00 | 0.00 | 69 | 1014.5 |
| 20260903031805 | 65 | 159 | 0.0 | 0.0 | 0.00 | 0.00 | 0.00 | 71 | 1014.5 |
| 20260903030804 | 66 | 159 | 0.0 | 0.0 | 0.00 | 0.00 | 0.00 | 70 | 1014.5 |
| 20260903025805 | 66 | 159 | 0.0 | 0.0 | 0.00 | 0.00 | 0.00 | 67 | 1014.5 |
| 20260903024305 | 66 | 159 | 0.0 | 0.0 | 0.00 | 0.00 | 0.00 | 66 | 1014.5 |
| 20260903023304 | 66 | 159 | 0.0 | 0.0 | 0.00 | 0.00 | 0.00 | 66 | 1014.5 |
| 20260903022804 | 66 | 159 | 0.0 | 0.0 | 0.00 | 0.00 | 0.00 | 65 | 1014.5 |
| 20260903021305 | 66 | 159 | 0.0 | 0.0 | 0.00 | 0.00 | 0.00 | 66 | 1015.0 |
| 20260903020805 | 65 | 159 | 0.0 | 0.0 | 0.00 | 0.01 | 0.00 | 66 | 1015.0 |
| 20260903020304 | 65 | 159 | 0.0 | 0.0 | 0.00 | 0.01 | 0.00 | 66 | 1015.0 |
| 20260903015306 | 65 | 159 | 0.0 | 0.0 | 0.00 | 0.01 | 0.00 | 68 | 1015.0 |
| 20260903012805 | 64 | 159 | 0.0 | 1.0 | 0.00 | 0.01 | 0.00 | 75 | 1015.0 |
| 20260903012306 | 64 | 159 | 0.0 | 0.0 | 0.00 | 0.01 | 0.00 | 74 | 1015.0 |
| 20260903011805 | 65 | 159 | 0.0 | 0.0 | 0.00 | 0.01 | 0.00 | 74 | 1015.0 |
| 20260903011304 | 65 | 159 | 0.0 | 0.0 | 0.00 | 0.01 | 0.00 | 74 | 1015.0 |
| 20260903010804 | 66 | 159 | 0.0 | 0.0 | 0.00 | 0.01 | 0.00 | 73 | 1015.0 |
| 20260903010304 | 66 | 159 | 0.0 | 0.0 | 0.00 | 0.01 | 0.00 | 71 | 1015.0 |
| 20260903002805 | 67 | 159 | 0.0 | 0.0 | 0.00 | 0.01 | 0.00 | 68 | 1014.2 |
| 20260903001805 | 67 | 159 | 0.0 | 0.0 | 0.00 | 0.01 | 0.00 | 70 | 1014.2 |
| 20260903000804 | 67 | 159 | 0.0 | 0.0 | 0.00 | 0.01 | 0.00 | 71 | 1014.2 |
| 20260902235804 | 67 | 159 | 0.0 | 0.0 | 0.00 | 0.01 | 0.00 | 71 | 1014.2 |
| 20260902233804 | 67 | 159 | 0.0 | 0.0 | 0.00 | 0.01 | 0.00 | 72 | 1014.5 |
| 20260902232804 | 66 | 159 | 0.0 | 0.0 | 0.00 | 0.01 | 0.00 | 73 | 1014.8 |
| 20260902230304 | 66 | 159 | 0.0 | 0.0 | 0.00 | 0.02 | 0.00 | 75 | 1016.0 |
| 20260902224304 | 67 | 159 | 0.0 | 0.0 | 0.00 | 0.02 | 0.00 | 72 | 1016.2 |
| 20260902223304 | 67 | 159 | 0.0 | 0.0 | 0.00 | 0.02 | 0.00 | 71 | 1016.2 |
| 20260902222805 | 67 | 159 | 0.0 | 0.0 | 0.00 | 0.02 | 0.00 | 71 | 1016.3 |
| 20260902221304 | 68 | 159 | 0.0 | 0.0 | 0.00 | 0.03 | 0.00 | 70 | 1016.3 |
| 20260902220304 | 68 | 159 | 0.0 | 0.0 | 0.00 | 0.03 | 0.00 | 69 | 1016.3 |
| 20260902215804 | 68 | 159 | 0.0 | 0.0 | 0.00 | 0.03 | 0.00 | 69 | 1016.3 |
| 20260902212805 | 68 | 159 | 0.0 | 0.0 | 0.00 | 0.03 | 0.00 | 68 | 1016.3 |
| 20260902211305 | 68 | 159 | 0.0 | 0.0 | 0.00 | 0.03 | 0.00 | 68 | 1016.3 |
| 20260902210804 | 68 | 159 | 0.0 | 0.0 | 0.00 | 0.03 | 0.00 | 68 | 1016.3 |
| 20260902205306 | 69 | 159 | 0.0 | 0.0 | 0.00 | 0.03 | 0.00 | 67 | 1016.3 |
| 20260902203804 | 69 | 159 | 0.0 | 0.0 | 0.00 | 0.03 | 0.00 | 67 | 1016.3 |
| 20260902203305 | 69 | 159 | 0.0 | 0.0 | 0.00 | 0.03 | 0.00 | 67 | 1016.3 |
| 20260902202805 | 69 | 159 | 0.0 | 0.0 | 0.00 | 0.03 | 0.00 | 67 | 1016.3 |
| 20260902202306 | 69 | 159 | 0.0 | 0.0 | 0.00 | 0.03 | 0.00 | 67 | 1016.6 |
| 20260902200804 | 69 | 159 | 0.0 | 0.0 | 0.00 | 0.04 | 0.00 | 67 | 1016.9 |
| 20260902194804 | 69 | 159 | 0.0 | 0.0 | 0.00 | 0.04 | 0.00 | 66 | 1016.9 |
| 20260902194304 | 69 | 155 | 0.0 | 1.0 | 0.00 | 0.04 | 0.00 | 65 | 1016.9 |
| 20260902192307 | 68 | 148 | 0.0 | 0.0 | 0.00 | 0.04 | 0.00 | 67 | 1017.3 |
| 20260902190804 | 68 | 148 | 0.0 | 0.0 | 0.00 | 0.04 | 0.00 | 68 | 1017.3 |
| 20260902190305 | 68 | 148 | 0.0 | 0.0 | 0.00 | 0.04 | 0.00 | 68 | 1017.5 |
| 20260902183304 | 67 | 212 | 0.0 | 0.0 | 0.00 | 0.04 | 0.00 | 67 | 1017.5 |
| 20260902182804 | 67 | 212 | 0.0 | 0.0 | 0.00 | 0.04 | 0.00 | 67 | 1017.5 |
| 20260902181804 | 67 | 212 | 0.0 | 0.0 | 0.00 | 0.04 | 0.00 | 68 | 1017.5 |
| 20260902181305 | 66 | 252 | 0.0 | 1.0 | 0.00 | 0.04 | 0.00 | 69 | 1017.7 |
| 20260902180805 | 66 | 324 | 0.0 | 0.0 | 0.00 | 0.04 | 0.00 | 72 | 1017.7 |
| 20260902174804 | 64 | 327 | 0.0 | 0.0 | 0.00 | 0.04 | 0.00 | 85 | 1017.7 |
| 20260902173804 | 64 | 327 | 0.0 | 0.0 | 0.00 | 0.04 | 0.00 | 86 | 1017.7 |
| 20260902173304 | 64 | 327 | 0.0 | 0.0 | 0.00 | 0.04 | 0.00 | 86 | 1017.7 |
| 20260902172805 | 64 | 327 | 0.0 | 0.0 | 0.00 | 0.04 | 0.00 | 86 | 1017.7 |
| 20260902171305 | 64 | 327 | 0.0 | 0.0 | 0.00 | 0.04 | 0.00 | 86 | 1017.8 |
| 20260902170805 | 64 | 327 | 0.0 | 0.0 | 0.00 | 0.04 | 0.00 | 86 | 1017.8 |
| 20260902165805 | 64 | 327 | 0.0 | 0.0 | 0.00 | 0.04 | 0.00 | 86 | 1017.8 |
| 20260902165308 | 64 | 327 | 0.0 | 0.0 | 0.00 | 0.04 | 0.00 | 86 | 1017.8 |
| 20260902164305 | 64 | 327 | 0.0 | 0.0 | 0.00 | 0.04 | 0.00 | 86 | 1017.8 |
| 20260902163304 | 64 | 327 | 0.0 | 0.0 | 0.00 | 0.04 | 0.00 | 86 | 1017.8 |
| 20260902162307 | 64 | 327 | 0.0 | 0.0 | 0.00 | 0.04 | 0.00 | 86 | 1017.7 |
| 20260902161304 | 64 | 327 | 0.0 | 0.0 | 0.00 | 0.04 | 0.00 | 86 | 1018.5 |
| 20260902160805 | 64 | 327 | 0.0 | 0.0 | 0.00 | 0.04 | 0.00 | 86 | 1018.5 |
| 20260902160305 | 64 | 327 | 0.0 | 0.0 | 0.00 | 0.04 | 0.00 | 87 | 1018.5 |
| 20260902154804 | 64 | 327 | 0.0 | 0.0 | 0.00 | 0.04 | 0.00 | 86 | 1018.5 |
| 20260902153304 | 65 | 327 | 0.0 | 0.0 | 0.00 | 0.04 | 0.00 | 87 | 1018.5 |
| 20260902152307 | 64 | 327 | 0.0 | 0.0 | 0.00 | 0.04 | 0.00 | 88 | 1018.5 |
| 20260902151805 | 64 | 327 | 0.0 | 0.0 | 0.00 | 0.04 | 0.00 | 88 | 1018.5 |
| 20260902151304 | 64 | 327 | 0.0 | 0.0 | 0.00 | 0.04 | 0.00 | 88 | 1018.8 |
| 20260902150805 | 64 | 327 | 0.0 | 0.0 | 0.00 | 0.04 | 0.00 | 88 | 1018.8 |
| 20260902144805 | 63 | 328 | 0.0 | 0.0 | 0.00 | 0.04 | 0.00 | 89 | 1018.8 |
| 20260902144304 | 63 | 328 | 0.0 | 0.0 | 0.00 | 0.04 | 0.00 | 90 | 1018.4 |
| 20260902142805 | 64 | 328 | 0.0 | 0.0 | 0.00 | 0.05 | 0.00 | 91 | 1018.4 |
| 20260902142306 | 64 | 328 | 0.0 | 0.0 | 0.00 | 0.05 | 0.00 | 91 | 1018.4 |
| 20260902141804 | 63 | 328 | 0.0 | 0.0 | 0.00 | 0.05 | 0.00 | 91 | 1018.0 |
| 20260902141305 | 63 | 329 | 0.0 | 0.0 | 0.00 | 0.05 | 0.00 | 91 | 1018.0 |
| 20260902140804 | 64 | 329 | 0.0 | 0.0 | 0.00 | 0.05 | 0.00 | 91 | 1018.0 |
| 20260902140305 | 63 | 332 | 0.0 | 0.0 | 0.00 | 0.05 | 0.00 | 91 | 1018.0 |